Weather in Dzhabyk

Russia / Chelyabinsk Oblast     53°09′45″N   59°57′55″E
temp.,
°C
wind,
m/s
gust,
m/s
humid.,
%
clouds,
%
prec.,
mm/h
press.,
hPa
HPBL,
m
25 february, thu
thu2523:00−23n71494100 0.1 1019968
02:00−23n71393100 0.1 1022840
05:00−25n41396100 0.1 1025498
08:00−27nw448992 0.0 102874
11:00−22nnw498056 0.0 1030329
14:00−19nnw34740 0.0 1030358
17:00−18w23830 0.0 1030202
20:00−24ssw44780 0.0 103133
26 february, fri
fri2623:00−25ssw48820 0.0 1032104
02:00−25sw47960 0.0 1031105
05:00−27sw34930 0.0 103136
08:00−28sw23840 0.0 103019
11:00−22sw34810 0.0 1029183
14:00−19sw468619 0.0 1028278
17:00−19ssw359427 0.0 1027248
20:00−24s449958 0.0 102770
27 february, sat
sat2723:00−24s3410071 0.0 102676
02:00−25s3410098 0.0 102480
05:00−24sse369989 0.1 1023107
08:00−22sse599899 0.1 1020244
11:00−18sse6109699 0.2 1016362
14:00−13sse61294100 1.5 1013532
17:00−7s5994100 3.2 1010669
20:00−8sse479696 0.5 1008203
28 february, sun
sun2823:00−7s489598 0.7 1007227
02:00−7sw2397100 0.3 100550
05:00−10wnw2396100 0.4 100541
08:00−10wsw3394100 0.0 100437
11:00−4sw4895100 0.1 1005278
14:00−1sw5796100 0.1 1005564
17:00−1sw479295 0.1 1005411
20:00−4sw479396 0.0 1006125
1 march, mon
mon123:00−4wsw479698 0.1 1008203
02:00−4sw3697100 0.5 1008168
05:00−6w349796 0.9 101085
08:00−11ne349791 0.1 101261
11:00−10ne239395 0.2 1013176
14:00−8ne2192100 0.1 1013270
17:00−6se129199 0.1 1014249
20:00−8s229598 0.1 101421